Zurück zum Katalog

THOR ABLESTAR DEB

AktivLEO
NORAD 657·DEBRIS·🇺🇸 United States

Gestartet Jun 29, 1961 von Cape Canaveral Space Force Station

Loading…

Nächste Überflüge (nächste 24 Stunden)

TLE

AktuellSource: Space-Track

Epoche: Sep 14, 2026, 03:58 UTC

1 00657U 61015HJ  26257.16563433  .00000260  00000-0  68163-3 0  9999
2 00657  66.2492 165.1287 0342511 338.9185 173.1997 13.11890909116299

Verfolge THOR ABLESTAR DEB in Echtzeit mit AllMySat

Download on the App Store